Battle Creek, Michigan, United States (49014)
Lat: 42.32N, Lon: 85.18W
Wx Zone: MIZ073
Local Info
Past Weather Observations for Today

NOTE: This archive is for the closest National Weather Service station to Battle Creek. Information may differ from the station used for current weather conditions.

Click here for Long-term Archive

Time Weather Temperature Dewpoint Humidity Pressure Winds Precip Visibility
17:53
Overcast
37°F / 3°C 27°F / -3°C 65% 29.8 in
(1009 mb)
SW 23 mph
(SW 37 kph)
- 10SM
16:53
Overcast
37°F / 3°C 25°F / -4°C 60% 29.83 in
(1010 mb)
SW 19.6 mph
(SW 32 kph)
0.00 in
(0.00 mm)
10SM
16:06
Overcast
Light Snow
36°F / 2°C 27°F / -3°C 70% 29.83 in
(1010 mb)
SSE 17.3 mph
(SSE 28 kph)
0.00 in
(0.00 mm)
6SM
15:53
Overcast
Light Snow
36°F / 2°C 27°F / -3°C 70% 29.83 in
(1010 mb)
SSE 27.6 mph
(SSE 44 kph)
0.00 in
(0.00 mm)
2SM
15:32
Overcast
Light Snow
36°F / 2°C 27°F / -3°C 70% 29.89 in
(1012 mb)
SW 20.7 mph
(SW 33 kph)
0.00 in
(0.00 mm)
3SM
15:15
Overcast
Light Snow
37°F / 3°C 25°F / -4°C 60% 29.89 in
(1012 mb)
SW 27.6 mph
(SW 44 kph)
0.00 in
(0.00 mm)
1 3/4SM
14:53
Overcast
Light Rain
39°F / 4°C 19°F / -7°C 45% 29.89 in
(1012 mb)
SSE 21.9 mph
(SSE 35 kph)
0.00 in
(0.00 mm)
10SM
13:53
Mostly Cloudy
Light Rain
43°F / 6°C 12°F / -11°C 29% 29.89 in
(1012 mb)
S 24.2 mph
(S 39 kph)
0.00 in
(0.00 mm)
10SM
12:53
Clear
45°F / 7°C 16°F / -9°C 31% 29.98 in
(1015 mb)
SSE 21.9 mph
(SSE 35 kph)
- 10SM
11:53
Clear
41°F / 5°C 16°F / -9°C 36% 30.04 in
(1017 mb)
S 29.9 mph
(S 48 kph)
- 10SM
10:53
Clear
39°F / 4°C 16°F / -9°C 39% 30.09 in
(1019 mb)
SSE 24.2 mph
(SSE 39 kph)
- 10SM
09:53
Clear
37°F / 3°C 16°F / -9°C 41% 30.15 in
(1021 mb)
SW 19.6 mph
(SW 32 kph)
- 10SM
08:53
Clear
34°F / 1°C 16°F / -9°C 48% 30.18 in
(1022 mb)
S 15 mph
(S 24 kph)
- 10SM
07:53
Clear
28°F / -2°C 16°F / -9°C 59% 30.18 in
(1022 mb)
S 16.1 mph
(S 26 kph)
- 10SM
06:53
Clear
25°F / -4°C 16°F / -9°C 69% 30.21 in
(1023 mb)
S 10.4 mph
(S 17 kph)
- 10SM
05:53
Clear
25°F / -4°C 14°F / -10°C 63% 30.21 in
(1023 mb)
SSE 9.2 mph
(SSE 15 kph)
- 10SM
04:53
Clear
23°F / -5°C 14°F / -10°C 68% 30.21 in
(1023 mb)
S 8.1 mph
(S 13 kph)
- 10SM
03:53
Clear
21°F / -6°C 12°F / -11°C 68% 30.24 in
(1024 mb)
S 9.2 mph
(S 15 kph)
- 10SM
02:53
Clear
21°F / -6°C 12°F / -11°C 68% 30.24 in
(1024 mb)
S 6.9 mph
(S 11 kph)
- 10SM
01:53
Clear
21°F / -6°C 12°F / -11°C 68% 30.24 in
(1024 mb)
SSE 6.9 mph
(SSE 11 kph)
- 10SM
00:53
Clear
21°F / -6°C 10°F / -12°C 63% 30.27 in
(1025 mb)
S 3.5 mph
(S 6 kph)
- 10SM
Time Weather Temperature Dewpoint Humidity Pressure Winds Precip Visibility


Weather for websites

WeatherForYou.com, LLC is not responsible for any damages or problems caused by this service. Current weather conditions are obtained from the closest station including government and personal stations which may have varying degrees of accuracy. Weather forecasts are derived from the NOAA NDFD. Like all things, this site belongs to Jesus Christ... He just trusts me to maintain it. If you have any questions or comments email webmaster@weatherforyou.com

Copyright © 2015, WeatherForYou.com LLC. All rights reserved.